Regional Weather Roundup
Issued by NWS Sioux Falls, SD

Home | Current Version | Previous Version | Text Only | Print | Product List | Glossary On
Versions: 1 2 3 4 5 6 7 8 9 10 11 12 13 14 15 16 17 18 19 20 21 22 23 24 25 26 27 28 29 30 31 32 33 34 35 36 37 38 39 40 41 42 43 44 45 46 47 48 49 50
000
ASUS43 KFSD 231710
RWRFSD

WEATHER ROUNDUP FOR SE SOUTH DAKOTA/SW MINNESOTA/NW IOWA
NATIONAL WEATHER SERVICE SIOUX FALLS SD
1200 PM CDT SAT JUL 23 2016

NOTE: "FAIR" INDICATES FEW OR NO CLOUDS BELOW 12,000 FEET WITH NO
SIGNIFICANT WEATHER AND OR OBSTRUCTIONS TO VISIBILITY.


SDZ038>040-050-052>070-231800-
SOUTHEAST SOUTH DAKOTA

CITY           SKY/WX    TMP DP  RH WIND       PRES   REMARKS
BROOKINGS      MOSUNNY   81  74  79 S18G25    29.77R
CHAMBERLAIN    SUNNY     89  68  50 S15       29.74F
HURON          CLOUDY    83  71  67 S24G32    29.72F
MADISON        PTSUNNY   81  81 100 S18G25    29.79F
MITCHELL       CLOUDY    84  72  67 S16       29.76F
SIOUX FALLS    CLOUDY    83  75  77 S15       29.79F
WINNER         FAIR      90  64  42 S15       29.78S
YANKTON        CLOUDY    88  72  58 S10       29.76F
$$

MNZ071-072-080-081-089-090-097-098-231800-
SOUTHWEST MINNESOTA

CITY           SKY/WX    TMP DP  RH WIND       PRES   REMARKS
FAIRMONT       CLOUDY    73  55  53 SE13G18   29.81F
JACKSON        CLOUDY    77  70  78 S9        29.83S
LUVERNE        CLOUDY    82  72  69 S15       29.80F
MARSHALL       CLOUDY    75  73  93 E9        29.79R
MONTEVIDEO     LGT RAIN  72  72 100 S9        29.81R
REDWOOD FALLS  CLOUDY    72  70  93 E12       29.79F
TRACY          CLOUDY    81  78  91 S10G16    29.79S
WINDOM         CLOUDY    79  72  78 S5        29.80F
WORTHINGTON    CLOUDY    80  75  84 S15       29.81F
$$

IAZ001>003-012>014-020>022-031-032-NEZ013-014-SDZ071-231800-
NORTHWEST IOWA

CITY           SKY/WX    TMP DP  RH WIND       PRES   REMARKS
CHEROKEE       PTSUNNY   83  76  81 S12       29.83S
DENISON        CLOUDY    79  75  89 SE8       29.83F
ESTHERVILLE    CLOUDY    73  72  96 SE16G22   29.83F
LE MARS        CLOUDY    84  77  79 SE9G15    29.82S
SHELDON        CLOUDY    81  77  89 S10       29.81S
SIOUX CITY     MOSUNNY   87  76  69 SE9       29.80S HX  97
SPENCER        CLOUDY    79  74  84 SE12      29.83S
STORM LAKE     CLOUDY    79  75  89 SE12G17   29.85S
$$

ABBREVIATIONS USED IN REMARKS
   TC - TEMPERATURE IN CELSIUS
  WCI - WIND CHILL INDEX
   HX - HEAT INDEX
  VSB - VISIBILITY





USA.gov is the U.S. government's official web portal to all federal, state and local government web resources and services.